Regional Weather Roundup
Issued by NWS

Home | Current Version | Previous Version | Text Only | Print | Product List | Glossary Off
Versions: 1 2 3 4 5 6 7 8 9 10 11 12 13 14 15 16 17 18 19 20 21 22 23 24 25 26 27 28 29 30 31 32 33 34 35 36 37 38 39 40 41 42 43 44 45 46 47 48 49 50

000
ASUS45 KPSR 230710
RWRAZ

ARIZONA REGIONAL HOURLY WEATHER ROUNDUP
NATIONAL WEATHER SERVICE PHOENIX AZ
1200 AM MST THU OCT 23 2014

NOTE: FAIR INDICATES FEW OR NO CLOUDS BELOW 12,000 FEET WITH NO
SIGNIFICANT WEATHER AND/OR OBSTRUCTIONS TO VISIBILITY.

AZZ001>003-036-230800-
NORTHWEST ARIZONA

CITY           SKY/WX    TMP DP  RH WIND       PRES   REMARKS
BULLHEAD CITY  CLEAR     73  36  25 CALM      29.97R
KINGMAN        CLEAR     52  39  61 CALM      30.11S
$$

AZZ004>008-015-016-018-230800-
NORTH CENTRAL ARIZONA

CITY           SKY/WX    TMP DP  RH WIND       PRES   REMARKS
GRAND CANYON   PTCLDY    34  25  69 CALM      30.28S
PRESCOTT       MOCLDY    52  38  58 S3        30.20S
FLAGSTAFF      PTCLDY    36  29  75 CALM      30.30F
PAYSON         CLEAR     55  43  62 CALM      30.21S
PAGE           CLEAR     59  34  39 W3        30.14S
$$

AZZ009>014-017-230800-
NORTHEAST ARIZONA

CITY           SKY/WX    TMP DP  RH WIND       PRES   REMARKS
WINSLOW        CLEAR     50  38  63 E5        30.19S
SAINT JOHNS    CLEAR     53  44  71 SE6       30.23R
WINDOW ROCK    CLEAR     39  29  67 CALM      30.28S
SHOW LOW       CLEAR     46  39  76 S8        30.29S
$$

AZZ023-230800-
GREATER PHOENIX AREA

CITY           SKY/WX    TMP DP  RH WIND       PRES   REMARKS
PHOENIX        CLEAR     75  54  47 CALM      29.94S
BUCKEYE          N/A     66  46  48 NE5       29.96S
LUKE AFB       PTCLDY    69  48  46 N8        29.95S
DEER VALLEY    CLEAR     73  47  39 N6        29.96S
SCOTTSDALE     CLEAR     71  50  47 CALM      29.98S
MESA-GATEWAY   CLEAR     64  52  63 SE6       29.99R
$$

AZZ027-028-230800-
SOUTHWEST MARICOPA COUNTY AND PINAL COUNTY

CITY           SKY/WX    TMP DP  RH WIND       PRES   REMARKS
CASA GRANDE    CLEAR     66  45  45 CALM      29.98S
GILA BEND      FAIR      73  47  39 S7        29.95S
$$

AZZ503-504-507>509-230800-
SOUTHEAST ARIZONA

CITY           SKY/WX    TMP DP  RH WIND       PRES   REMARKS
TUCSON         CLEAR     67  47  48 SE5       30.06R
DAVIS-MONTHAN  CLEAR     64  50  61 SE9       30.04S
NOGALES        CLEAR     57  45  64 E7        30.11S
SIERRA VISTA   CLEAR     61  43  51 SW8       30.16S
DOUGLAS        CLEAR     53  47  79 NW5       30.13S
SAFFORD        CLEAR     60  52  74 CALM      30.07S
$$

AZZ020-021-025-026-031-230800-
SOUTHWEST ARIZONA

CITY           SKY/WX    TMP DP  RH WIND       PRES   REMARKS
YUMA           MOCLDY    76  52  43 CALM      29.91S
$$

CAZ031-033-041-043-047-048-061-230800-
SOUTHERN CALIFORNIA

CITY           SKY/WX    TMP DP  RH WIND       PRES   REMARKS
DOWNTOWN L.A.  CLEAR     66  59  78 CALM      29.96S
L.A. AIRPORT   PTCLDY    67  66  97 VRB3      29.96S
SAN DIEGO      CLEAR     67  62  84 CALM      29.98S
BURBANK        CLEAR     65  49  56 CALM      29.97S
ONTARIO        PTCLDY    67  56  67 CALM      29.98S
RIVERSIDE      CLEAR     66  51  58 CALM      29.99S
PALM SPRINGS   CLEAR     76  27  16 NW8       29.96S
EL CENTRO NAS  CLEAR     71  41  33 W7        29.90S
IMPERIAL       PTCLDY    71  52  50 W6        29.89S
BLYTHE         PTCLDY    77  42  28 W6        29.92S
NEEDLES        CLEAR     73  39  29 W5        29.96S
$$

NVZ020-UTZ003-230800-
SOUTHERN NEVADA-UTAH

CITY           SKY/WX    TMP DP  RH WIND       PRES   REMARKS
LAS VEGAS      PTCLDY    67  29  24 SW9       30.01R
SALT LAKE CITY PTCLDY    44  34  67 SE7       30.15S
$$

NMZ009-TXZ055-230800-
NEW MEXICO-WEST TEXAS

CITY           SKY/WX    TMP DP  RH WIND       PRES   REMARKS
ALBUQUERQUE    CLEAR     57  44  62 SE6       30.20S
EL PASO        CLEAR     60  54  80 SE3       30.13S
$$


........................KEY........................
SKY/WX - SKY CONDITION/WEATHER
TMP    - TEMPERATURE IN FAHRENHEIT
DP     - DEW POINT IN FAHRENHEIT
RH     - RELATIVE HUMIDITY IN PERCENT
WIND   - DIRECTION AND SPEED IN MILES PER HOUR (MPH)
VRB    - VARIABLE WIND DIRECTION
PRES   - MEAN SEA LEVEL PRESSURE IN INCHES OF MERCURY
         F - FALLING PRESSURE   R - RISING PRESSURE
         S - STEADY PRESSURE
VSB    - VISIBILITY IN MILES
HX     - HEAT INDEX IN FAHRENHEIT
WCI    - WIND CHILL INDEX IN FAHRENHEIT
TC     - TEMPERATURE IN CELSIUS WHICH IS ALSO KNOWN AS
         TEMPERATURE IN CENTIGRADE
AFB    - AIR FORCE BASE
         LUKE AFB IS LUKE AIR FORCE BASE
         DAVIS-MONTHAN IS DAVIS-MONTHAN AIR FORCE BASE
NAS    - NAVAL AIR STATION
         EL CENTRO NAS IS EL CENTRO NAVAL AIR STATION
N/A    - NOT AVAILABLE



USA.gov is the U.S. government's official web portal to all federal, state and local government web resources and services.